Simultaneous Nadir Overpasses (SNOs) Predictions

Prediction of SNOs between AQUA and LANDSAT-8 Satellite Orbit:

Table of predicted SNOs for the next 14.0 days since TLE Epoch: 11/6/2024
Index Date (AQUA) Time (AQUA) Lat,Lon (AQUA) SZA (AQUA ) Date (LANDSAT-8) Time (LANDSAT-8) Lat,Lon (LANDSAT-8) SZA (LANDSAT-8 ) Distance(km) Time Diff (sec)
1 11/19/2024 22:25:07 -73.94, 28.94 86.24 11/19/2024 22:23:59 -73.96, 27.05 86.30 58.03 68
2 11/19/2024 23:14:31 74.15,-163.87 93.96 11/19/2024 23:13:21 74.12,-164.94 93.88 32.78 70
3 11/20/2024 00:03:55 -74.37, 3.26 85.84 11/20/2024 00:02:44 -74.36, 3.27 85.86 1.20 71
4 11/20/2024 00:53:15 74.37, 170.93 94.18 11/20/2024 00:52:09 74.37, 170.93 94.16 0.24 66
5 11/20/2024 01:42:35 -74.39, -21.45 85.80 11/20/2024 01:41:36 -74.40, -21.35 85.79 3.42 59
6 11/20/2024 02:31:55 74.39, 146.23 94.21 11/20/2024 02:31:02 74.36, 146.19 94.17 3.13 53
7 11/20/2024 03:21:15 -74.41, -46.15 85.77 11/20/2024 03:20:29 -74.40, -46.08 85.78 2.34 46
8 11/20/2024 04:10:35 74.41, 121.52 94.24 11/20/2024 04:09:54 74.40, 121.58 94.24 1.80 41



Historial Predications of SNOs between AQUA and LANDSAT-8
